Zurück zum Katalog

SL-16 DEB

AktivLEO
NORAD 22362·DEBRIS·🇷🇺 Russia

Gestartet Dec 25, 1992 von Baikonur Cosmodrome

Loading…

Nächste Überflüge (nächste 24 Stunden)

TLE

AktuellSource: Space-Track

Epoche: Sep 14, 2026, 11:13 UTC

1 22362U 92093BB  26257.46804780  .00000550  00000-0  42248-3 0  9990
2 22362  70.8918 288.7458 0185039  23.8949  43.1524 13.89748001693540

Verfolge SL-16 DEB in Echtzeit mit AllMySat

Download on the App Store